Home > Weather > Greeley > Past weeks

Flag for USA Weather for the Past 2 Weeks in Greeley, Colorado, USA

Now
48 °F

Sunny.


Feels Like: 48 °F
Forecast: 40 / 82 °F
Wind: No wind

Location: Greeley / Weld

Current Time: May 5, 2016 at 8:30:08 AM

Latest Report: May 5, 2016 at 7:55 AM


Visibility: 10 mi

Pressure: 30.14 "Hg (25.37 "Hg at 1424m altitude)

Humidity: 71%

Dew Point: 39 °F

Location of GreeleyLocation

Historic Weather in Greeley — Graph

°F

Greeley Temperature Yesterday

Maximum temperature yesterday: 75 °F (at 4:35 PM)
Minimum temperature yesterday: 36 °F (at 5:55 AM)
Average temperature yesterday: 57 °F

High & Low Weather Summary for the Past Weeks

 TemperatureHumidityPressure
High81 °F (Apr 22, 4:35 PM)100% (Apr 29, 11:15 AM)30.34 "Hg (Apr 29, 11:15 AM)
Low25 °F (May 2, 4:55 AM)18% (Apr 23, 4:35 PM)29.53 "Hg (Apr 25, 5:35 PM)
Average48 °F65%29.99 "Hg
* Reported Apr 20 7:15 AM — May 5 7:35 AM, Greeley, Weather by CustomWeather, © 2016

Note: Actual official high and low records may vary slightly from our data, if they occured in-between our weather recording intervals... More about our weather records

Advertising

Greeley Weather History for the Previous 24 Hours

Scroll right to see more
 ConditionsComfort  
Time TempWeatherWind HumidityBarometerVisibility
7:35 AM
Thu, May 5
46 °FSunny.5 mph82%30.14 "Hg10 mi
7:15 AM45 °FSunny.6 mph87%30.14 "Hg10 mi
6:55 AM43 °FSunny.3 mph87%30.13 "Hg10 mi
6:35 AM43 °FClear.5 mph81%30.13 "Hg10 mi
6:15 AM41 °FClear.5 mph87%30.12 "Hg10 mi
5:55 AM41 °FClear.6 mph87%30.12 "Hg10 mi
5:35 AM41 °FClear.7 mph87%30.12 "Hg10 mi
5:15 AM41 °FClear.7 mph87%30.12 "Hg10 mi
4:55 AM41 °FClear.5 mph87%30.12 "Hg10 mi
4:35 AM41 °FClear.5 mph87%30.11 "Hg10 mi
4:15 AM43 °FClear.3 mph81%30.11 "Hg10 mi
3:55 AM45 °FClear.No wind76%30.10 "Hg7 mi
3:35 AM45 °FClear.3 mph76%30.10 "Hg10 mi
3:15 AM45 °FClear.6 mph76%30.10 "Hg10 mi
2:55 AM46 °FClear.8 mph76%30.11 "Hg10 mi
2:35 AM46 °FClear.8 mph76%30.11 "Hg10 mi
2:15 AM48 °FClear.7 mph71%30.12 "Hg10 mi
1:55 AM48 °FClear.8 mph71%30.12 "Hg10 mi
1:35 AM50 °FClear.6 mph67%30.13 "Hg10 mi
1:15 AM48 °FClear.7 mph71%30.14 "Hg10 mi
12:55 AM48 °FClear.6 mph71%30.14 "Hg9 mi
12:35 AM50 °FClear.7 mph71%30.14 "Hg6 mi
12:15 AM52 °FClear.7 mph62%30.14 "Hg10 mi
11:55 PM
Wed, May 4
50 °FClear.No wind67%30.15 "Hg10 mi
11:35 PM52 °FClear.No wind62%30.14 "Hg10 mi
11:15 PM54 °FClear.5 mph63%30.14 "Hg9 mi
10:55 PM54 °FClear.No wind58%30.14 "Hg2 mi
10:35 PM54 °FClear.3 mph58%30.14 "Hg10 mi
10:15 PM55 °FClear.3 mph55%30.14 "Hg10 mi
9:55 PM55 °FClear.5 mph55%30.13 "Hg10 mi
9:35 PM57 °FClear.6 mph51%30.13 "Hg10 mi
9:15 PM59 °FClear.5 mph48%30.13 "Hg10 mi
8:55 PM61 °FSunny.6 mph42%30.12 "Hg10 mi
8:35 PM63 °FSunny.6 mph42%30.12 "Hg10 mi
8:15 PM63 °FSunny.7 mph42%30.11 "Hg10 mi
7:55 PM64 °FSunny.8 mph40%30.11 "Hg10 mi
7:35 PM66 °FSunny.7 mph35%30.11 "Hg10 mi
7:15 PM70 °FSunny.8 mph31%30.11 "Hg10 mi
6:55 PM72 °FSunny.7 mph29%30.11 "Hg10 mi
6:35 PM73 °FSunny.10 mph27%30.11 "Hg10 mi
6:15 PM75 °FSunny.9 mph27%30.11 "Hg10 mi
5:55 PM75 °FSunny.No wind24%30.12 "Hg10 mi
5:35 PM75 °FSunny.No wind22%30.12 "Hg10 mi
5:15 PM75 °FSunny.5 mph25%30.13 "Hg10 mi
4:55 PM73 °FSunny.6 mph23%30.13 "Hg10 mi
4:35 PM75 °FSunny.8 mph24%30.13 "HgN/A
4:15 PM73 °FSunny.6 mph25%30.13 "Hg10 mi
3:55 PM73 °FSunny.5 mph27%30.14 "HgN/A
3:35 PM73 °FSunny.6 mph23%30.15 "HgN/A
3:15 PM73 °FSunny.No wind27%30.16 "Hg10 mi
2:55 PM73 °FSunny.3 mph27%30.17 "Hg10 mi
2:35 PM73 °FSunny.8 mph27%30.17 "Hg10 mi
2:15 PM73 °FSunny.8 mph29%30.18 "Hg10 mi
1:55 PM72 °FSunny.7 mph29%30.19 "Hg10 mi
1:35 PM72 °FSunny.6 mph29%30.19 "Hg10 mi
1:15 PM72 °FSunny.3 mph25%30.20 "Hg10 mi
12:55 PM72 °FSunny.3 mph31%30.20 "Hg10 mi
12:35 PM72 °FSunny.3 mph31%30.21 "Hg10 mi
12:15 PM72 °FSunny.5 mph31%30.22 "Hg10 mi
11:55 AM72 °FSunny.7 mph29%30.23 "Hg10 mi
11:35 AM70 °FSunny.6 mph31%30.23 "Hg10 mi
11:15 AM70 °FSunny.6 mph33%30.24 "Hg10 mi
10:55 AM66 °FSunny.No wind35%30.24 "Hg10 mi
10:35 AM64 °FSunny.5 mph40%30.25 "Hg10 mi
10:15 AM61 °FSunny.No wind39%30.25 "Hg10 mi
9:55 AM63 °FSunny.No wind42%30.25 "Hg10 mi
9:35 AM59 °FSunny.No wind48%30.26 "Hg10 mi
9:15 AM57 °FSunny.No wind51%30.26 "Hg10 mi
8:55 AM55 °FSunny.No wind55%30.26 "Hg10 mi
8:35 AM52 °FSunny.No wind62%30.27 "Hg10 mi
8:15 AM48 °FSunny.No wind71%30.26 "Hg10 mi
Weather by CustomWeather, © 2016

See weather overviewHow to use our weather pages